| time (UTC) | temp C | wind direction | speed KPH | gust KPH | rain 1hr cm | rain 24hr cm | rain mn cm | humidity % | barometer mb |
| 20260504234503 | 20 | 346 | 16.1 | 35.4 | 0.00 | 0.00 | 0.00 | 26 | 1005.4 |
| 20260504233618 | 20 | 340 | 17.7 | 32.2 | 0.00 | 0.00 | 0.00 | 26 | 1005.4 |
| 20260504232503 | 21 | 334 | 17.7 | 30.6 | 0.00 | 0.00 | 0.00 | 25 | 1005.2 |
| 20260504231502 | 21 | 339 | 16.1 | 29.0 | 0.00 | 0.00 | 0.00 | 25 | 1005.0 |
| 20260504230503 | 22 | 345 | 14.5 | 30.6 | 0.00 | 0.00 | 0.00 | 25 | 1004.9 |
| 20260504225618 | 22 | 338 | 17.7 | 33.8 | 0.00 | 0.00 | 0.00 | 25 | 1004.5 |
| 20260504224618 | 22 | 333 | 17.7 | 32.2 | 0.00 | 0.00 | 0.00 | 25 | 1004.2 |
| 20260504223503 | 22 | 330 | 19.3 | 37.0 | 0.00 | 0.00 | 0.00 | 25 | 1004.1 |
| 20260504222618 | 23 | 336 | 17.7 | 45.1 | 0.00 | 0.00 | 0.00 | 24 | 1003.8 |
| 20260504221504 | 23 | 346 | 17.7 | 33.8 | 0.00 | 0.00 | 0.00 | 25 | 1003.6 |
| 20260504220502 | 24 | 348 | 14.5 | 38.6 | 0.00 | 0.00 | 0.00 | 25 | 1003.4 |
| 20260504215503 | 24 | 336 | 19.3 | 29.0 | 0.00 | 0.00 | 0.00 | 24 | 1003.3 |
| 20260504214618 | 24 | 335 | 16.1 | 37.0 | 0.00 | 0.00 | 0.00 | 24 | 1003.2 |
| 20260504213503 | 24 | 335 | 16.1 | 35.4 | 0.00 | 0.00 | 0.00 | 25 | 1003.2 |
| 20260504212503 | 25 | 346 | 12.9 | 24.1 | 0.00 | 0.00 | 0.00 | 25 | 1003.1 |
| 20260504211506 | 25 | 332 | 12.9 | 27.4 | 0.00 | 0.00 | 0.00 | 25 | 1003.0 |
| 20260504210503 | 25 | 329 | 9.7 | 24.1 | 0.00 | 0.00 | 0.00 | 26 | 1002.9 |
| 20260504205503 | 25 | 343 | 12.9 | 25.7 | 0.00 | 0.00 | 0.00 | 27 | 1002.9 |
| 20260504204504 | 25 | 343 | 12.9 | 27.4 | 0.00 | 0.00 | 0.00 | 28 | 1002.9 |
| 20260504203503 | 25 | 335 | 12.9 | 25.7 | 0.00 | 0.00 | 0.00 | 27 | 1002.8 |
| 20260504202503 | 25 | 330 | 12.9 | 27.4 | 0.00 | 0.00 | 0.00 | 28 | 1002.8 |
| 20260504201503 | 25 | 320 | 9.7 | 24.1 | 0.00 | 0.00 | 0.00 | 29 | 1002.7 |
| 20260504200506 | 25 | 326 | 12.9 | 25.7 | 0.00 | 0.00 | 0.00 | 28 | 1002.7 |
| 20260504195503 | 26 | 327 | 12.9 | 30.6 | 0.00 | 0.00 | 0.00 | 28 | 1002.7 |
| 20260504194503 | 26 | 330 | 12.9 | 25.7 | 0.00 | 0.00 | 0.00 | 29 | 1002.5 |
| 20260504193503 | 26 | 330 | 14.5 | 30.6 | 0.00 | 0.00 | 0.00 | 28 | 1002.5 |
| 20260504192503 | 26 | 324 | 11.3 | 30.6 | 0.00 | 0.00 | 0.00 | 28 | 1002.5 |
| 20260504191503 | 26 | 328 | 12.9 | 33.8 | 0.00 | 0.00 | 0.00 | 27 | 1002.4 |
| 20260504190503 | 26 | 331 | 14.5 | 27.4 | 0.00 | 0.00 | 0.00 | 27 | 1002.3 |
| 20260504185503 | 26 | 335 | 12.9 | 27.4 | 0.00 | 0.00 | 0.00 | 27 | 1002.2 |
| 20260504184618 | 26 | 321 | 14.5 | 29.0 | 0.00 | 0.00 | 0.00 | 25 | 1002.1 |
| 20260504183618 | 27 | 323 | 11.3 | 24.1 | 0.00 | 0.00 | 0.00 | 26 | 1002.1 |
| 20260504182503 | 27 | 320 | 9.7 | 25.7 | 0.00 | 0.00 | 0.00 | 25 | 1002.0 |
| 20260504181503 | 27 | 323 | 11.3 | 25.7 | 0.00 | 0.00 | 0.00 | 25 | 1001.9 |
| 20260504180503 | 27 | 308 | 9.7 | 22.5 | 0.00 | 0.00 | 0.00 | 26 | 1002.0 |
| 20260504175503 | 26 | 289 | 8.0 | 27.4 | 0.00 | 0.00 | 0.00 | 25 | 1002.0 |
| 20260504174503 | 26 | 279 | 8.0 | 24.1 | 0.00 | 0.00 | 0.00 | 26 | 1002.2 |
| 20260504173503 | 26 | 313 | 9.7 | 22.5 | 0.00 | 0.00 | 0.00 | 27 | 1002.3 |
| 20260504172503 | 26 | 284 | 9.7 | 25.7 | 0.00 | 0.00 | 0.00 | 26 | 1002.3 |
| 20260504171618 | 26 | 300 | 9.7 | 22.5 | 0.00 | 0.00 | 0.00 | 25 | 1002.4 |
| 20260504170503 | 26 | 286 | 6.4 | 20.9 | 0.00 | 0.00 | 0.00 | 29 | 1002.4 |
| 20260504150618 | 20 | 255 | 3.2 | 11.3 | 0.00 | 0.00 | 0.00 | 39 | 1002.3 |
| 20260504140504 | 17 | 317 | 4.8 | 11.3 | 0.00 | 0.00 | 0.00 | 45 | 1002.7 |
| 20260504130503 | 13 | 340 | 1.6 | 6.4 | 0.00 | 0.00 | 0.00 | 62 | 1002.7 |
| 20260504110618 | 8 | 147 | 0.0 | 0.0 | 0.00 | 0.00 | 0.00 | 77 | 1002.6 |
| 20260504081618 | 9 | 154 | 0.0 | 0.0 | 0.00 | 0.00 | 0.00 | 71 | 1004.0 |
| 20260504080503 | 9 | 163 | 0.0 | 0.0 | 0.00 | 0.00 | 0.00 | 73 | 1004.1 |
| 20260504050503 | 11 | 163 | 0.0 | 0.0 | 0.00 | 0.00 | 0.00 | 66 | 1006.6 |
| 20260504045503 | 11 | 163 | 0.0 | 0.0 | 0.00 | 0.00 | 0.00 | 67 | 1006.7 |
| 20260504044504 | 12 | 163 | 0.0 | 0.0 | 0.00 | 0.00 | 0.00 | 64 | 1006.8 |
| 20260504043617 | 12 | 163 | 0.0 | 0.0 | 0.00 | 0.00 | 0.00 | 63 | 1006.8 |
| 20260504042503 | 12 | 163 | 0.0 | 0.0 | 0.00 | 0.00 | 0.00 | 62 | 1006.9 |
| 20260504041503 | 13 | 163 | 0.0 | 0.0 | 0.00 | 0.00 | 0.00 | 60 | 1007.1 |
| 20260504040503 | 13 | 163 | 0.0 | 0.0 | 0.00 | 0.00 | 0.00 | 59 | 1007.1 |
| 20260504035503 | 13 | 163 | 0.0 | 0.0 | 0.00 | 0.00 | 0.00 | 58 | 1007.3 |
| 20260504034503 | 13 | 163 | 0.0 | 0.0 | 0.00 | 0.00 | 0.00 | 60 | 1007.4 |
| 20260504033503 | 13 | 163 | 0.0 | 0.0 | 0.00 | 0.00 | 0.00 | 58 | 1007.5 |
| 20260504032504 | 14 | 163 | 0.0 | 0.0 | 0.00 | 0.00 | 0.00 | 58 | 1007.6 |
| 20260504031618 | 14 | 163 | 0.0 | 0.0 | 0.00 | 0.00 | 0.00 | 57 | 1007.5 |
| 20260504030503 | 15 | 163 | 0.0 | 0.0 | 0.00 | 0.00 | 0.00 | 55 | 1007.8 |
| 20260504025503 | 15 | 163 | 0.0 | 0.0 | 0.00 | 0.00 | 0.00 | 54 | 1007.8 |
| 20260504024503 | 15 | 163 | 0.0 | 0.0 | 0.00 | 0.00 | 0.00 | 49 | 1007.8 |
| 20260504023503 | 16 | 163 | 0.0 | 0.0 | 0.00 | 0.00 | 0.00 | 48 | 1007.8 |
| 20260504022618 | 16 | 163 | 0.0 | 0.0 | 0.00 | 0.00 | 0.00 | 45 | 1008.0 |
| 20260504021503 | 16 | 163 | 0.0 | 0.0 | 0.00 | 0.00 | 0.00 | 43 | 1008.0 |
| 20260504020504 | 17 | 163 | 0.0 | 0.0 | 0.00 | 0.00 | 0.00 | 41 | 1008.0 |
| 20260504015503 | 18 | 163 | 0.0 | 0.0 | 0.00 | 0.00 | 0.00 | 39 | 1008.0 |
| 20260504014503 | 18 | 163 | 0.0 | 0.0 | 0.00 | 0.00 | 0.00 | 35 | 1008.1 |
| 20260504013503 | 19 | 163 | 0.0 | 1.6 | 0.00 | 0.00 | 0.00 | 34 | 1008.1 |
| 20260504012506 | 20 | 164 | 0.0 | 1.6 | 0.00 | 0.00 | 0.00 | 32 | 1008.1 |
| 20260504011618 | 21 | 172 | 1.6 | 6.4 | 0.00 | 0.00 | 0.00 | 31 | 1008.0 |
| 20260504010504 | 21 | 173 | 3.2 | 8.0 | 0.00 | 0.00 | 0.00 | 30 | 1008.2 |
| 20260504005503 | 21 | 177 | 1.6 | 6.4 | 0.00 | 0.00 | 0.00 | 28 | 1008.3 |
| 20260504004503 | 21 | 185 | 3.2 | 8.0 | 0.00 | 0.00 | 0.00 | 28 | 1008.4 |
| 20260504003503 | 22 | 248 | 1.6 | 6.4 | 0.00 | 0.00 | 0.00 | 26 | 1008.4 |
| 20260504002503 | 22 | 280 | 3.2 | 8.0 | 0.00 | 0.00 | 0.00 | 25 | 1008.4 |
| 20260504001503 | 22 | 270 | 3.2 | 9.7 | 0.00 | 0.00 | 0.00 | 25 | 1008.6 |
| 20260504000618 | 22 | 269 | 1.6 | 4.8 | 0.00 | 0.00 | 0.00 | 25 | 1008.6 |
| 20260503235503 | 23 | 269 | 3.2 | 9.7 | 0.00 | 0.00 | 0.00 | 26 | 1008.7 |